Time,TemperatureF,DewpointF,PressureIn,WindDirection,WindDirectionDegrees,WindSpeedMPH,WindSpeedGustMPH,Humidity,HourlyPrecipIn,Conditions,Clouds,dailyrainin,SoftwareType,DateUTC
2013-02-07 00:14:00,18.0,8.9,30.10,North,-999,0.0,-999.0,67,-99.99,,,-99.99,Acu-Link.com,2013-02-07 07:14:00,
2013-02-07 00:29:00,17.4,9.0,30.09,North,-999,0.0,-999.0,69,-99.99,,,-99.99,Acu-Link.com,2013-02-07 07:29:00,
2013-02-07 00:44:00,17.0,8.6,30.09,North,-999,0.0,-999.0,69,-99.99,,,-99.99,Acu-Link.com,2013-02-07 07:44:00,
2013-02-07 00:59:00,16.9,8.8,30.09,North,-999,0.0,-999.0,70,-99.99,,,-99.99,Acu-Link.com,2013-02-07 07:59:00,
2013-02-07 01:14:00,17.3,8.9,30.09,North,-999,0.0,-999.0,69,-99.99,,,-99.99,Acu-Link.com,2013-02-07 08:14:00,
2013-02-07 01:30:00,17.2,9.1,30.10,North,-999,0.0,-999.0,70,-99.99,,,-99.99,Acu-Link.com,2013-02-07 08:30:00,
2013-02-07 01:45:00,16.8,8.7,30.10,North,-999,0.0,-999.0,70,-99.99,,,-99.99,Acu-Link.com,2013-02-07 08:45:00,
2013-02-07 02:00:00,15.6,7.9,30.09,North,-999,0.0,-999.0,71,-99.99,,,-99.99,Acu-Link.com,2013-02-07 09:00:00,
2013-02-07 02:15:00,15.1,7.7,30.10,North,-999,0.0,-999.0,72,-99.99,,,-99.99,Acu-Link.com,2013-02-07 09:15:00,
2013-02-07 02:31:00,15.6,8.5,30.10,North,-999,0.0,-999.0,73,-99.99,,,-99.99,Acu-Link.com,2013-02-07 09:31:00,
2013-02-07 02:46:00,15.9,8.5,30.10,North,-999,0.0,-999.0,72,-99.99,,,-99.99,Acu-Link.com,2013-02-07 09:46:00,
2013-02-07 03:01:00,15.6,7.9,30.10,North,-999,0.0,-999.0,71,-99.99,,,-99.99,Acu-Link.com,2013-02-07 10:01:00,
2013-02-07 03:16:00,15.3,7.9,30.09,North,-999,0.0,-999.0,72,-99.99,,,-99.99,Acu-Link.com,2013-02-07 10:16:00,
2013-02-07 03:32:00,16.0,8.6,30.09,North,-999,0.0,-999.0,72,-99.99,,,-99.99,Acu-Link.com,2013-02-07 10:32:00,
2013-02-07 03:47:00,15.5,8.1,30.09,North,-999,0.0,-999.0,72,-99.99,,,-99.99,Acu-Link.com,2013-02-07 10:47:00,
2013-02-07 04:02:00,14.7,7.3,30.09,North,-999,0.0,-999.0,72,-99.99,,,-99.99,Acu-Link.com,2013-02-07 11:02:00,
2013-02-07 04:17:00,14.2,7.5,30.09,North,-999,0.0,-999.0,74,-99.99,,,-99.99,Acu-Link.com,2013-02-07 11:17:00,
2013-02-07 04:32:00,13.9,7.2,30.10,North,-999,0.0,-999.0,74,-99.99,,,-99.99,Acu-Link.com,2013-02-07 11:32:00,
2013-02-07 04:48:00,13.8,7.4,30.11,North,-999,0.0,-999.0,75,-99.99,,,-99.99,Acu-Link.com,2013-02-07 11:48:00,
2013-02-07 05:03:00,14.1,7.7,30.10,North,-999,0.0,-999.0,75,-99.99,,,-99.99,Acu-Link.com,2013-02-07 12:03:00,
2013-02-07 05:18:00,13.8,7.4,30.11,North,-999,0.0,-999.0,75,-99.99,,,-99.99,Acu-Link.com,2013-02-07 12:18:00,
2013-02-07 05:34:00,13.6,7.2,30.11,North,-999,0.0,-999.0,75,-99.99,,,-99.99,Acu-Link.com,2013-02-07 12:34:00,
2013-02-07 05:49:00,12.6,6.5,30.11,North,-999,0.0,-999.0,76,-99.99,,,-99.99,Acu-Link.com,2013-02-07 12:49:00,
2013-02-07 06:04:00,12.3,6.2,30.11,North,-999,0.0,-999.0,76,-99.99,,,-99.99,Acu-Link.com,2013-02-07 13:04:00,
2013-02-07 06:19:00,11.8,5.7,30.11,North,-999,0.0,-999.0,76,-99.99,,,-99.99,Acu-Link.com,2013-02-07 13:19:00,
2013-02-07 06:34:00,12.0,6.2,30.11,North,-999,0.0,-999.0,77,-99.99,,,-99.99,Acu-Link.com,2013-02-07 13:34:00,
2013-02-07 06:50:00,11.8,5.7,30.10,North,-999,0.0,-999.0,76,-99.99,,,-99.99,Acu-Link.com,2013-02-07 13:50:00,
2013-02-07 07:05:00,12.4,6.3,30.11,North,-999,0.0,-999.0,76,-99.99,,,-99.99,Acu-Link.com,2013-02-07 14:05:00,
2013-02-07 07:20:00,12.7,6.0,30.12,North,-999,0.0,-999.0,74,-99.99,,,-99.99,Acu-Link.com,2013-02-07 14:20:00,
2013-02-07 07:35:00,12.9,5.9,30.12,North,-999,0.0,-999.0,73,-99.99,,,-99.99,Acu-Link.com,2013-02-07 14:35:00,
2013-02-07 07:50:00,13.4,6.1,30.12,North,-999,0.0,-999.0,72,-99.99,,,-99.99,Acu-Link.com,2013-02-07 14:50:00,
2013-02-07 08:06:00,14.4,6.7,30.12,North,-999,0.0,-999.0,71,-99.99,,,-99.99,Acu-Link.com,2013-02-07 15:06:00,
2013-02-07 08:21:00,16.3,8.3,30.13,North,-999,0.0,-999.0,70,-99.99,,,-99.99,Acu-Link.com,2013-02-07 15:21:00,
2013-02-07 08:36:00,18.3,9.5,30.12,North,-999,0.0,-999.0,68,-99.99,,,-99.99,Acu-Link.com,2013-02-07 15:36:00,
2013-02-07 08:52:00,19.9,10.4,30.12,North,-999,0.0,-999.0,66,-99.99,,,-99.99,Acu-Link.com,2013-02-07 15:52:00,
2013-02-07 09:07:00,21.7,11.1,30.12,North,-999,0.0,-999.0,63,-99.99,,,-99.99,Acu-Link.com,2013-02-07 16:07:00,
2013-02-07 09:22:00,23.3,11.9,30.11,North,-999,0.0,-999.0,61,-99.99,,,-99.99,Acu-Link.com,2013-02-07 16:22:00,
2013-02-07 09:37:00,24.7,12.4,30.11,North,-999,0.0,-999.0,59,-99.99,,,-99.99,Acu-Link.com,2013-02-07 16:37:00,
2013-02-07 09:52:00,26.8,11.6,30.10,North,-999,0.0,-999.0,52,-99.99,,,-99.99,Acu-Link.com,2013-02-07 16:52:00,
2013-02-07 10:08:00,28.4,10.3,30.10,North,-999,0.0,-999.0,46,-99.99,,,-99.99,Acu-Link.com,2013-02-07 17:08:00,
2013-02-07 10:23:00,30.4,9.5,30.10,North,-999,0.0,-999.0,41,-99.99,,,-99.99,Acu-Link.com,2013-02-07 17:23:00,
2013-02-07 10:38:00,31.9,8.0,30.10,North,-999,0.0,-999.0,36,-99.99,,,-99.99,Acu-Link.com,2013-02-07 17:38:00,
2013-02-07 10:54:00,34.0,8.0,30.10,North,-999,0.0,-999.0,33,-99.99,,,-99.99,Acu-Link.com,2013-02-07 17:54:00,
2013-02-07 11:09:00,36.1,7.0,30.09,North,-999,1.6,-999.0,29,-99.99,,,-99.99,Acu-Link.com,2013-02-07 18:09:00,
2013-02-07 11:24:00,39.2,6.4,30.09,North,-999,1.6,-999.0,25,-99.99,,,-99.99,Acu-Link.com,2013-02-07 18:24:00,
2013-02-07 11:39:00,41.8,4.8,30.08,North,-999,0.0,-999.0,21,-99.99,,,-99.99,Acu-Link.com,2013-02-07 18:39:00,
2013-02-07 11:54:00,46.7,6.7,30.06,North,-999,0.0,-999.0,19,-99.99,,,-99.99,Acu-Link.com,2013-02-07 18:54:00,
2013-02-07 12:10:00,46.9,4.4,30.06,North,-999,0.0,-999.0,17,-99.99,,,-99.99,Acu-Link.com,2013-02-07 19:10:00,
2013-02-07 12:25:00,48.4,5.6,30.05,North,-999,0.0,-999.0,17,-99.99,,,-99.99,Acu-Link.com,2013-02-07 19:25:00,
2013-02-07 12:40:00,48.1,4.1,30.05,North,-999,0.0,-999.0,16,-99.99,,,-99.99,Acu-Link.com,2013-02-07 19:40:00,
2013-02-07 12:56:00,51.2,5.2,30.04,North,-999,0.0,-999.0,15,-99.99,,,-99.99,Acu-Link.com,2013-02-07 19:56:00,
2013-02-07 13:11:00,47.6,0.8,30.03,North,-999,0.0,-999.0,14,-99.99,,,-99.99,Acu-Link.com,2013-02-07 20:11:00,
2013-02-07 13:26:00,44.0,0.7,30.02,North,-999,1.6,-999.0,16,-99.99,,,-99.99,Acu-Link.com,2013-02-07 20:26:00,
2013-02-07 13:41:00,42.5,-0.5,30.02,North,-999,0.0,-999.0,16,-99.99,,,-99.99,Acu-Link.com,2013-02-07 20:41:00,
2013-02-07 13:56:00,42.2,-0.7,30.01,North,-999,1.6,-999.0,16,-99.99,,,-99.99,Acu-Link.com,2013-02-07 20:56:00,
2013-02-07 14:12:00,42.3,-3.4,30.01,North,-999,0.0,-999.0,14,-99.99,,,-99.99,Acu-Link.com,2013-02-07 21:12:00,
2013-02-07 14:27:00,42.4,-8.3,30.00,North,-999,0.0,-999.0,11,-99.99,,,-99.99,Acu-Link.com,2013-02-07 21:27:00,
2013-02-07 14:42:00,42.2,-8.5,30.00,North,-999,3.2,-999.0,11,-99.99,,,-99.99,Acu-Link.com,2013-02-07 21:42:00,
2013-02-07 14:57:00,42.0,-10.6,29.99,North,-999,3.2,-999.0,10,-99.99,,,-99.99,Acu-Link.com,2013-02-07 21:57:00,
2013-02-07 15:13:00,42.0,-8.6,29.99,North,-999,0.0,-999.0,11,-99.99,,,-99.99,Acu-Link.com,2013-02-07 22:13:00,
2013-02-07 15:28:00,41.7,-10.8,29.99,North,-999,1.6,-999.0,10,-99.99,,,-99.99,Acu-Link.com,2013-02-07 22:28:00,
2013-02-07 15:43:00,42.1,-8.6,29.98,North,-999,1.6,-999.0,11,-99.99,,,-99.99,Acu-Link.com,2013-02-07 22:43:00,
2013-02-07 15:58:00,41.2,-7.5,29.98,North,-999,0.0,-999.0,12,-99.99,,,-99.99,Acu-Link.com,2013-02-07 22:58:00,
2013-02-07 16:13:00,40.7,-6.3,29.98,North,-999,0.0,-999.0,13,-99.99,,,-99.99,Acu-Link.com,2013-02-07 23:13:00,
2013-02-07 16:29:00,39.1,-6.0,29.98,North,-999,0.0,-999.0,14,-99.99,,,-99.99,Acu-Link.com,2013-02-07 23:29:00,
2013-02-07 16:44:00,38.5,-3.7,29.97,North,-999,0.0,-999.0,16,-99.99,,,-99.99,Acu-Link.com,2013-02-07 23:44:00,
2013-02-07 17:00:00,37.7,-4.4,29.99,North,-999,0.0,-999.0,16,-99.99,,,-99.99,Acu-Link.com,2013-02-08 00:00:00,
2013-02-07 17:15:00,36.4,-4.2,29.97,North,-999,0.0,-999.0,17,-99.99,,,-99.99,Acu-Link.com,2013-02-08 00:15:00,
2013-02-07 17:30:00,34.4,-4.7,29.97,North,-999,0.0,-999.0,18,-99.99,,,-99.99,Acu-Link.com,2013-02-08 00:30:00,
2013-02-07 17:45:00,32.3,-4.2,29.97,North,-999,0.0,-999.0,20,-99.99,,,-99.99,Acu-Link.com,2013-02-08 00:45:00,
2013-02-07 18:00:00,30.0,-5.1,29.97,North,-999,0.0,-999.0,21,-99.99,,,-99.99,Acu-Link.com,2013-02-08 01:00:00,
2013-02-07 18:16:00,30.2,1.1,29.97,North,-999,0.0,-999.0,28,-99.99,,,-99.99,Acu-Link.com,2013-02-08 01:16:00,
2013-02-07 18:31:00,28.2,7.6,29.98,North,-999,0.0,-999.0,41,-99.99,,,-99.99,Acu-Link.com,2013-02-08 01:31:00,
2013-02-07 18:46:00,26.9,8.9,29.99,North,-999,0.0,-999.0,46,-99.99,,,-99.99,Acu-Link.com,2013-02-08 01:46:00,
2013-02-07 19:01:00,26.5,11.3,29.97,North,-999,0.0,-999.0,52,-99.99,,,-99.99,Acu-Link.com,2013-02-08 02:01:00,
2013-02-07 19:17:00,28.1,13.2,29.98,North,-999,0.0,-999.0,53,-99.99,,,-99.99,Acu-Link.com,2013-02-08 02:17:00,
2013-02-07 19:32:00,29.5,13.2,29.98,North,-999,0.0,-999.0,50,-99.99,,,-99.99,Acu-Link.com,2013-02-08 02:32:00,
2013-02-07 19:47:00,28.9,13.1,29.97,North,-999,0.0,-999.0,51,-99.99,,,-99.99,Acu-Link.com,2013-02-08 02:47:00,
2013-02-07 20:02:00,28.5,12.7,29.97,North,-999,0.0,-999.0,51,-99.99,,,-99.99,Acu-Link.com,2013-02-08 03:02:00,
2013-02-07 20:17:00,27.3,12.0,29.98,North,-999,0.0,-999.0,52,-99.99,,,-99.99,Acu-Link.com,2013-02-08 03:17:00,
2013-02-07 20:33:00,26.9,11.7,29.97,North,-999,0.0,-999.0,52,-99.99,,,-99.99,Acu-Link.com,2013-02-08 03:33:00,
2013-02-07 20:48:00,26.1,10.9,29.97,North,-999,0.0,-999.0,52,-99.99,,,-99.99,Acu-Link.com,2013-02-08 03:48:00,
2013-02-07 21:03:00,25.7,10.1,29.96,North,-999,0.0,-999.0,51,-99.99,,,-99.99,Acu-Link.com,2013-02-08 04:03:00,
2013-02-07 21:18:00,25.2,10.1,29.96,North,-999,0.0,-999.0,52,-99.99,,,-99.99,Acu-Link.com,2013-02-08 04:18:00,
2013-02-07 21:33:00,24.6,9.5,29.97,North,-999,0.0,-999.0,52,-99.99,,,-99.99,Acu-Link.com,2013-02-08 04:33:00,
2013-02-07 21:49:00,23.4,8.8,29.96,North,-999,0.0,-999.0,53,-99.99,,,-99.99,Acu-Link.com,2013-02-08 04:49:00,
2013-02-07 22:04:00,22.5,8.4,29.96,North,-999,0.0,-999.0,54,-99.99,,,-99.99,Acu-Link.com,2013-02-08 05:04:00,
2013-02-07 22:19:00,21.7,7.7,29.95,North,-999,0.0,-999.0,54,-99.99,,,-99.99,Acu-Link.com,2013-02-08 05:19:00,
2013-02-07 22:35:00,20.9,6.9,29.94,North,-999,0.0,-999.0,54,-99.99,,,-99.99,Acu-Link.com,2013-02-08 05:35:00,
2013-02-07 22:50:00,20.5,6.5,29.94,North,-999,0.0,-999.0,54,-99.99,,,-99.99,Acu-Link.com,2013-02-08 05:50:00,
2013-02-07 23:05:00,19.2,5.3,29.94,North,-999,0.0,-999.0,54,-99.99,,,-99.99,Acu-Link.com,2013-02-08 06:05:00,
2013-02-07 23:20:00,19.1,5.2,29.93,North,-999,0.0,-999.0,54,-99.99,,,-99.99,Acu-Link.com,2013-02-08 06:20:00,
2013-02-07 23:35:00,20.0,4.8,29.93,North,-999,0.0,-999.0,51,-99.99,,,-99.99,Acu-Link.com,2013-02-08 06:35:00,
2013-02-07 23:51:00,19.5,4.4,29.94,North,-999,0.0,-999.0,51,-99.99,,,-99.99,Acu-Link.com,2013-02-08 06:51:00,